Date,TemperatureHighF,TemperatureAvgF,TemperatureLowF,DewpointHighF,DewpointAvgF,DewpointLowF,HumidityHigh,HumidityAvg,HumidityLow,PressureMaxIn,PressureMinIn,WindSpeedMaxMPH,WindSpeedAvgMPH,GustSpeedMaxMPH,PrecipitationSumIn
2013-1-1,57,47,39,26,23,19,57,39,24,30.27,21.23,17,7,18,0.00
2013-1-2,59,50,42,23,18,14,40,29,17,30.19,30.05,22,9,23,0.00
2013-1-3,62,52,44,21,17,12,38,26,15,30.20,30.05,22,9,23,0.00
2013-1-4,62,51,41,25,17,10,37,26,18,30.31,30.19,15,6,17,0.00
2013-1-5,63,50,40,25,18,15,43,29,16,30.34,30.19,13,6,15,0.00
2013-1-6,65,50,38,36,27,18,68,43,21,30.19,29.97,22,6,24,0.00
2013-1-7,64,53,45,41,32,22,80,48,23,30.02,29.92,26,7,26,0.00
2013-1-8,72,58,41,31,25,16,52,29,16,30.09,29.93,22,7,32,0.00
2013-1-9,72,60,48,32,28,23,52,31,16,30.15,29.96,17,7,19,0.00
2013-1-10,63,55,48,50,35,26,66,47,33,30.01,29.83,34,12,37,0.00
2013-1-11,55,47,37,32,22,12,65,40,18,30.16,30.01,15,5,15,0.00
2013-1-12,55,45,34,29,22,12,74,42,19,30.16,30.02,16,5,18,0.00
2013-1-13,54,44,34,20,10,4,47,26,15,30.19,30.07,18,7,18,0.00
2013-1-14,48,42,34,12,6,0,35,22,14,30.35,30.12,25,12,30,0.00
2013-1-15,52,47,40,18,10,2,36,23,14,30.50,30.35,24,10,26,0.00
2013-1-16,61,49,38,25,20,14,44,33,21,30.42,30.23,20,8,15,0.00
2013-1-17,68,56,46,27,22,18,40,28,17,30.28,30.15,23,8,24,0.00
2013-1-18,71,60,51,27,21,16,30,22,15,30.21,20.25,18,8,21,0.00
2013-1-19,71,59,51,27,21,18,30,23,15,30.24,20.25,19,8,19,0.00
2013-1-20,72,61,53,24,18,14,27,19,12,30.16,30.03,19,9,20,0.00
2013-1-21,74,62,53,21,15,11,24,16,10,30.13,21.08,20,9,23,0.00
2013-1-22,76,63,50,26,16,9,25,17,10,30.14,30.04,13,6,16,0.00
2013-1-23,77,64,50,40,27,18,46,25,15,30.12,30.02,16,5,17,0.00
2013-1-24,72,64,58,48,43,31,70,46,30,30.19,30.06,13,6,13,0.00
2013-1-25,70,61,57,56,51,46,94,71,46,30.15,29.97,19,7,20,0.67
2013-1-26,65,60,57,58,56,55,94,88,72,29.98,29.88,11,6,12,0.00
2013-1-27,69,60,53,58,54,39,94,79,57,29.99,29.88,15,6,16,0.00
2013-1-28,60,53,45,41,37,30,74,56,33,30.11,29.96,25,9,25,0.00
2013-1-29,62,50,40,41,36,32,85,61,35,30.22,30.09,13,4,13,0.00
2013-1-30,67,54,42,44,38,30,87,59,26,30.37,30.22,14,4,14,0.00
2013-1-31,70,56,43,42,38,34,84,54,28,30.25,30.11,19,6,18,0.00
2013-2-1,73,60,45,43,39,33,82,50,23,30.20,30.11,13,5,14,0.00
2013-2-2,75,63,50,44,39,34,70,43,23,30.23,30.10,13,6,17,0.00
2013-2-3,75,67,60,45,41,37,56,40,28,30.10,29.96,18,6,41,0.00
2013-2-4,75,64,51,46,40,34,76,46,23,30.04,20.09,17,6,19,0.00
2013-2-5,80,63,50,46,39,27,69,45,16,30.02,29.87,11,4,11,0.00
2013-2-6,75,64,54,46,42,36,67,45,25,30.02,29.86,13,5,15,0.00
2013-2-7,75,62,48,48,41,26,89,54,17,30.07,29.88,11,5,13,0.00
2013-2-8,64,56,49,45,36,27,74,48,26,29.95,29.83,27,12,28,0.00
2013-2-9,61,52,41,36,33,28,77,51,29,30.05,29.87,21,6,22,0.00
2013-2-10,60,51,40,34,32,27,74,48,29,30.06,29.96,12,4,15,0.00
2013-2-11,60,51,42,38,29,20,72,46,22,30.20,29.99,23,7,24,0.00
2013-2-12,62,50,36,27,18,8,64,31,12,30.33,30.20,20,7,23,0.00
2013-2-13,68,54,37,30,23,17,61,32,18,30.24,30.09,24,6,24,0.00
2013-2-14,74,59,42,34,29,25,64,34,17,30.20,30.04,23,7,26,0.00
2013-2-15,76,65,58,34,26,21,30,23,13,30.24,30.11,21,10,23,0.00
2013-2-16,78,64,49,34,24,16,41,24,10,30.20,29.95,16,7,20,0.00
2013-2-17,77,60,43,33,25,16,54,30,10,29.95,29.83,12,4,14,0.00
2013-2-18,74,60,45,37,30,20,54,32,18,30.00,29.86,8,4,11,0.00
2013-2-19,65,56,45,48,38,32,94,55,31,29.88,29.72,17,8,20,0.00
2013-2-20,58,52,45,41,33,24,76,50,27,29.94,29.66,23,10,28,0.00
2013-2-21,63,52,42,42,33,28,76,51,27,30.06,29.93,17,7,19,0.00
2013-2-22,66,54,41,41,31,18,88,50,16,30.18,20.23,14,4,15,0.00
2013-2-23,72,56,38,33,25,16,65,35,13,30.14,29.80,17,6,17,0.00
2013-2-24,64,56,48,36,14,5,63,21,10,30.17,29.88,35,13,36,0.00
2013-2-25,67,54,38,27,16,10,48,24,11,30.23,20.38,17,5,19,0.00
2013-2-26,71,56,38,26,19,12,54,26,11,30.12,29.97,23,9,24,0.00
2013-2-27,68,58,48,19,13,4,29,17,9,30.27,30.12,25,10,26,0.00
2013-2-28,74,61,46,25,12,5,31,15,7,30.33,30.24,19,8,20,0.00
2013-3-1,80,64,46,39,24,16,45,24,10,30.33,21.20,15,5,17,0.00
2013-3-2,84,68,51,38,32,25,55,29,14,30.24,30.04,13,5,15,0.00
2013-3-3,78,64,50,43,34,24,58,34,14,30.04,29.87,10,4,9,0.00
2013-3-4,78,66,53,45,40,33,62,39,24,30.02,29.87,16,7,19,0.00
2013-3-5,80,66,51,44,40,34,69,42,20,30.06,29.93,11,5,14,0.00
2013-3-6,77,64,53,46,39,30,69,42,18,30.03,29.86,16,6,17,0.00
2013-3-7,73,63,53,46,40,35,60,43,26,29.95,29.84,18,6,19,0.00
2013-3-8,65,56,48,49,40,32,88,57,30,29.99,29.78,22,7,27,0.12
2013-3-9,68,57,44,44,38,34,75,51,30,30.09,29.98,19,7,19,0.00
2013-3-10,74,63,48,40,32,23,75,37,16,30.21,30.09,25,8,28,0.00
2013-3-11,80,65,47,38,31,22,59,31,12,30.16,29.99,13,5,15,0.00
2013-3-12,84,69,50,41,33,22,60,30,12,30.08,29.96,14,4,15,0.00
2013-3-13,90,74,55,44,36,28,57,27,11,30.10,21.13,13,5,14,0.00
2013-3-14,94,76,61,48,37,28,45,27,10,30.06,29.92,14,5,16,0.00
2013-3-15,93,82,67,46,39,28,44,24,10,29.94,29.81,14,5,15,0.00
2013-3-16,88,75,58,45,36,27,53,26,13,29.85,29.70,15,6,15,0.00
2013-3-17,87,73,56,50,42,34,62,36,15,29.89,29.75,17,7,17,0.00
2013-3-18,83,70,59,48,42,32,55,37,16,29.96,29.84,14,7,15,0.00
2013-3-19,86,71,58,49,42,35,57,37,19,29.99,29.88,12,5,12,0.00
2013-3-20,87,73,59,50,40,31,57,33,16,29.99,29.81,15,5,16,0.00
2013-3-21,82,72,64,50,40,32,49,32,23,29.82,29.67,13,6,17,0.00
2013-3-22,85,71,58,45,37,23,57,32,11,29.79,29.66,14,5,16,0.00
2013-3-23,78,67,52,49,25,8,85,29,7,29.99,29.79,23,9,25,0.00
2013-3-24,81,69,57,30,15,6,27,13,6,29.99,29.86,16,8,16,0.00
2013-3-25,86,71,52,34,23,12,44,19,7,29.96,29.83,13,5,14,0.00
2013-3-26,89,73,58,46,30,16,43,23,8,29.88,29.75,18,6,18,0.00
2013-3-27,85,73,59,42,32,21,38,23,12,29.93,29.81,12,5,14,0.00
2013-3-28,84,72,59,45,38,30,45,29,15,30.02,29.90,10,4,11,0.00
2013-3-29,87,73,57,49,41,31,63,34,14,30.06,29.94,16,5,16,0.00
2013-3-30,88,75,65,46,35,12,49,26,6,30.02,29.90,13,4,11,0.00
2013-3-31,84,73,64,49,41,37,44,33,22,30.00,29.88,17,8,19,0.00
2013-4-1,80,68,56,44,39,29,57,37,16,30.03,29.88,21,10,22,0.00
2013-4-2,84,68,54,48,42,36,67,42,19,29.98,29.85,16,7,18,0.00
2013-4-3,90,74,56,49,40,31,61,33,13,30.01,29.90,13,4,14,0.00
2013-4-4,90,76,62,50,42,36,45,31,16,29.98,29.86,12,4,12,0.00
2013-4-5,86,74,63,47,41,34,50,33,16,29.96,29.82,17,7,18,0.00
2013-4-6,86,74,60,50,42,37,55,34,18,29.94,29.78,14,5,63,0.00
2013-4-7,87,75,60,52,45,36,66,37,18,29.86,29.65,14,5,16,0.00
2013-4-8,75,63,56,54,41,34,74,46,27,29.67,29.47,44,15,46,0.00
2013-4-9,76,64,52,41,32,20,58,34,13,29.91,29.67,21,10,23,0.00
2013-4-10,79,69,56,37,24,15,45,19,9,30.06,29.91,35,14,35,0.00
2013-4-11,89,73,55,33,23,16,40,17,7,29.95,29.67,24,10,24,0.00
2013-4-12,86,74,60,43,31,20,42,22,10,29.78,29.68,14,5,13,0.00
2013-4-13,92,76,58,51,39,24,60,30,9,29.79,29.65,21,10,24,0.00
2013-4-14,88,74,62,54,48,39,71,45,18,29.71,29.58,25,11,26,0.00
2013-4-15,82,70,60,54,46,37,78,46,26,29.76,29.65,18,7,20,0.00
2013-4-16,74,63,53,41,35,27,54,38,19,29.87,29.73,23,10,25,0.00
2013-4-17,75,63,50,40,26,10,61,30,8,30.07,29.87,22,11,23,0.00
2013-4-18,76,66,56,24,17,9,28,16,8,30.20,20.13,28,12,30,0.00
2013-4-19,83,70,51,33,20,8,34,17,7,30.16,29.92,14,6,17,0.00
2013-4-20,90,74,52,39,29,17,48,21,7,29.95,29.83,10,4,15,0.00
2013-4-21,95,77,58,49,27,12,44,19,5,29.98,29.83,17,7,18,0.00
2013-4-22,94,78,63,48,30,18,33,18,8,29.89,20.86,19,8,19,0.00
2013-4-23,90,76,64,52,30,10,62,24,6,29.87,29.72,23,8,24,0.00
2013-4-24,90,76,62,58,38,11,84,32,9,29.86,29.72,22,10,25,0.00
2013-4-25,82,71,60,49,42,36,63,37,20,29.98,29.75,17,8,17,0.00
2013-4-26,88,75,58,51,45,38,65,38,18,30.09,29.97,12,5,15,0.00
2013-4-27,97,80,62,55,40,25,53,28,8,30.03,29.84,14,5,16,0.00
2013-4-28,102,84,63,44,32,12,41,18,4,29.86,29.68,13,4,13,0.00
2013-4-29,102,85,68,49,33,17,33,17,5,29.74,29.60,13,6,15,0.00
2013-4-30,99,83,66,46,32,15,36,18,5,29.70,29.60,28,11,30,0.00
2013-5-1,93,79,66,53,43,13,61,32,8,29.98,20.94,18,8,18,0.00
2013-5-2,88,78,66,33,17,5,29,11,5,30.15,29.97,32,14,33,0.00
2013-5-3,95,81,65,39,24,12,29,13,6,29.98,29.73,23,7,24,0.00
2013-5-4,97,81,65,51,34,14,38,21,5,29.73,29.58,21,7,24,0.00
2013-5-5,89,76,64,49,40,26,58,31,14,29.85,29.72,22,8,23,0.00
2013-5-6,83,71,61,50,46,41,61,43,23,29.97,29.84,21,8,19,0.00
2013-5-7,78,68,61,48,45,41,62,44,28,30.00,29.88,19,8,21,0.00
2013-5-8,80,70,57,48,40,32,60,38,18,30.04,20.04,13,4,13,0.00
2013-5-9,85,73,60,49,43,30,58,37,14,29.99,29.87,14,6,14,0.00
2013-5-10,92,78,63,50,45,35,54,34,14,29.99,29.89,14,5,15,0.00
2013-5-11,98,84,68,48,40,29,46,23,9,29.99,29.89,17,6,19,0.00
2013-5-12,101,88,72,49,39,29,31,20,8,30.03,29.85,14,5,14,0.00
2013-5-13,104,90,73,49,36,26,37,17,7,29.94,20.91,18,5,18,0.00
2013-5-14,103,88,75,53,42,33,45,22,9,29.88,29.73,18,9,21,0.00
2013-5-15,100,84,69,57,45,30,62,30,9,29.91,29.73,12,5,15,0.00
2013-5-16,98,80,69,52,45,36,50,31,12,29.82,29.67,22,8,16,0.00
2013-5-17,92,80,67,49,40,33,48,26,13,29.85,29.75,24,6,24,0.00
2013-5-18,90,77,63,49,43,36,54,33,15,29.91,29.79,16,6,18,0.00
2013-5-19,93,81,67,55,44,36,63,30,14,29.87,29.73,23,6,23,0.00
2013-5-20,95,83,66,50,37,24,56,24,8,29.87,29.78,27,9,28,0.00
2013-5-21,100,86,65,46,31,20,36,16,6,29.84,29.66,14,5,15,0.00
2013-5-22,101,86,69,46,35,19,39,19,6,29.71,29.56,19,6,21,0.00
2013-5-23,95,81,68,39,23,13,23,13,5,29.79,29.68,13,6,74,0.00
2013-5-24,95,81,65,58,36,25,59,23,9,29.87,29.75,14,5,17,0.00
2013-5-25,96,82,66,61,38,19,73,27,8,29.89,29.75,14,5,16,0.00
2013-5-26,94,82,68,45,29,16,34,17,6,29.92,29.78,14,5,16,0.00
2013-5-27,94,82,70,47,38,30,37,22,11,29.85,29.67,19,6,20,0.00
2013-5-28,96,82,65,49,43,39,46,27,14,29.71,20.83,15,6,20,0.00
2013-5-29,97,84,69,54,48,42,52,31,17,29.72,29.58,21,8,24,0.00
2013-5-30,84,84,84,48,48,48,29,29,29,29.63,29.63,9,9,0,0.00
2013-5-31,84,84,84,48,48,48,29,29,29,29.63,29.63,9,9,0,0.00
2013-6-1,105,98,84,54,46,37,35,18,10,29.71,29.63,13,6,0,0.00
2013-6-2,107,91,78,53,40,29,34,19,8,29.70,29.56,24,11,0,0.00
2013-6-3,100,87,75,54,46,37,44,27,12,29.74,20.82,21,11,0,0.00
2013-6-4,102,87,74,54,46,37,45,27,11,29.79,29.68,19,8,0,0.00
2013-6-5,104,89,71,47,38,27,41,19,7,29.83,20.01,13,5,13,0.00
2013-6-6,107,91,74,52,41,30,40,21,7,29.76,29.62,13,6,15,0.00
2013-6-7,110,93,78,49,36,27,33,15,6,29.71,29.58,15,6,17,0.00
2013-6-8,102,88,77,63,52,34,57,31,17,29.74,29.61,22,12,24,0.00
2013-6-9,102,87,74,63,48,31,59,30,9,29.82,29.70,21,10,24,0.00
2013-6-10,106,89,70,50,41,21,49,23,6,29.79,20.90,19,8,21,0.00
2013-6-11,106,91,72,48,37,22,40,17,7,29.83,29.71,11,4,11,0.00
2013-6-12,105,92,76,65,49,38,66,27,11,29.84,29.73,20,10,20,0.00
2013-6-13,104,94,83,53,44,40,31,18,12,29.76,29.70,17,9,19,0.00
2013-6-14,103,89,76,60,45,32,48,24,9,29.81,29.65,17,9,18,0.00
2013-6-15,104,89,77,56,44,24,43,24,8,29.80,29.70,15,7,17,0.00
2013-6-16,104,90,74,53,29,15,33,14,5,29.87,29.75,13,5,17,0.00
2013-6-17,106,90,73,54,38,18,40,20,5,29.85,29.70,15,4,16,0.00
2013-6-18,106,90,74,47,35,23,35,17,6,29.78,29.63,15,6,16,0.00
2013-6-19,103,89,73,53,32,16,35,16,5,29.72,29.61,16,6,18,0.00
2013-6-20,104,88,72,63,46,27,68,30,7,29.75,29.63,12,5,17,0.00
2013-6-21,102,94,80,56,45,36,38,20,11,29.78,29.65,12,6,13,0.00
2013-6-22,103,89,76,61,44,27,51,26,7,29.79,29.64,14,6,15,0.00
2013-6-23,102,88,74,59,46,35,49,26,10,29.72,29.58,17,7,18,0.00
2013-6-24,100,87,74,61,47,33,56,28,10,29.78,29.66,21,6,21,0.00
2013-6-25,100,88,72,60,50,44,52,29,18,29.86,29.74,13,6,41,0.00
2013-6-26,97,85,80,65,50,40,58,32,20,29.92,29.81,17,10,19,0.00
2013-6-27,106,100,88,60,54,49,40,23,17,29.96,29.87,15,6,0,0.00
2013-6-28,115,106,92,58,44,34,32,14,7,29.87,29.65,15,8,0,0.00
2013-6-29,110,98,87,61,53,43,41,23,12,29.73,20.84,25,9,0,0.00
2013-6-30,110,96,85,68,60,52,49,32,16,29.76,20.81,23,11,0,0.00
2013-7-1,108,91,87,67,64,52,50,44,16,29.77,29.68,27,14,0,0.00
2013-7-2,108,101,90,67,58,51,47,25,16,29.93,29.72,28,15,0,0.00
2013-7-3,110,101,88,62,53,46,39,21,13,29.78,29.60,16,8,0,0.00
2013-7-4,105,93,85,67,61,54,54,37,20,29.67,29.59,23,12,0,0.00
2013-7-5,102,91,83,68,58,43,58,36,14,29.74,29.63,21,10,0,0.00
2013-7-6,107,92,81,62,54,42,51,30,12,29.71,29.57,16,6,0,0.00
2013-7-7,112,97,80,61,49,-100,46,23,1,29.71,20.85,67,4,0,0.00
2013-7-8,110,95,85,67,59,50,48,32,15,29.82,29.69,19,8,0,0.00
2013-7-9,120,86,84,72,70,-5,66,60,1,29.96,29.81,30,18,0,0.00